TimeMDT,TemperatureF,Dew PointF,Humidity,Sea Level PressureIn,VisibilityMPH,Wind Direction,Wind SpeedMPH,Gust SpeedMPH,PrecipitationIn,Events,Conditions,WindDirDegrees,DateUTC
12:53 AM,27.0,21.9,81,29.88,10.0,East,8.1,-,N/A,,Clear,80,2012-03-11 07:53:00
1:53 AM,26.1,21.9,84,29.88,10.0,ENE,6.9,-,N/A,,Clear,70,2012-03-11 08:53:00
3:53 AM,25.0,21.0,85,29.86,10.0,NE,8.1,-,N/A,,Clear,50,2012-03-11 09:53:00
4:53 AM,26.1,21.0,81,29.86,10.0,ENE,9.2,-,N/A,,Clear,60,2012-03-11 10:53:00
6:53 AM,23.0,19.0,85,29.89,10.0,ENE,10.4,-,N/A,,Clear,60,2012-03-11 12:53:00
7:53 AM,24.1,19.0,81,29.91,10.0,NE,5.8,-,N/A,,Clear,50,2012-03-11 13:53:00
8:53 AM,35.1,23.0,61,29.91,10.0,NE,4.6,-,N/A,,Clear,40,2012-03-11 14:53:00
9:53 AM,44.1,21.9,42,29.90,10.0,Variable,3.5,-,N/A,,Clear,0,2012-03-11 15:53:00
10:53 AM,48.9,21.0,33,29.89,10.0,Variable,4.6,18.4,N/A,,Clear,0,2012-03-11 16:53:00
11:53 AM,52.0,18.0,26,29.89,10.0,NW,17.3,23.0,N/A,,Clear,310,2012-03-11 17:53:00
12:53 PM,53.1,17.1,24,29.88,10.0,WNW,10.4,-,N/A,,Clear,300,2012-03-11 18:53:00
1:53 PM,55.0,15.1,21,29.86,10.0,West,18.4,26.5,N/A,,Clear,270,2012-03-11 19:53:00
2:53 PM,57.0,12.9,18,29.84,10.0,West,18.4,26.5,N/A,,Clear,280,2012-03-11 20:53:00
3:53 PM,59.0,12.0,16,29.83,10.0,West,12.7,18.4,N/A,,Clear,260,2012-03-11 21:53:00
4:53 PM,59.0,7.0,13,29.81,10.0,WNW,12.7,16.1,N/A,,Clear,290,2012-03-11 22:53:00
5:53 PM,57.9,9.0,14,29.82,10.0,West,10.4,19.6,N/A,,Clear,260,2012-03-11 23:53:00
6:53 PM,54.0,10.9,18,29.85,10.0,WSW,8.1,-,N/A,,Clear,250,2012-03-12 00:53:00
7:53 PM,44.1,12.9,28,29.90,10.0,SSW,4.6,-,N/A,,Clear,200,2012-03-12 01:53:00
8:53 PM,36.0,17.1,46,29.91,10.0,East,5.8,-,N/A,,Clear,80,2012-03-12 02:53:00
9:53 PM,35.1,18.0,50,29.89,10.0,ENE,6.9,-,N/A,,Clear,60,2012-03-12 03:53:00
10:53 PM,32.0,18.0,56,29.91,10.0,East,6.9,-,N/A,,Clear,80,2012-03-12 04:53:00
11:53 PM,30.0,18.0,61,29.92,10.0,Variable,3.5,-,N/A,,Clear,0,2012-03-12 05:53:00
12:53 AM,30.9,18.0,59,29.93,10.0,ENE,6.9,-,N/A,,Clear,60,2012-03-12 06:53:00